[[{"header":{"parameterUnit":"m.s-1","parameterCategory":1,"la1":30.2991,"la2":30.254,"lo1":-89.0895,"lo2":-89.0444,"dy":0.0017,"dx":0.0017,"nx":28,"ny":28,"refTime":"2025-03-11T03:00:00:Z","depth":0,"parameterNumber":2,"parameterNumberName":"U-component_of_WINDS"},"data":[0,0,0,0,0,0,0,0,0,0,0,0,0,0,0,0,0,0,0,0,0,0,0,0,0,0,0,0,0,0,0,0,0,0,0,0,0,0,0,0,0,0,0,0,0,0,0,0,0,0,0,0,0,0,0,0,0,0,1.1631,1.1631,0,1.1606,1.1606,1.1606,1.1574,1.1573,1.1573,1.1572,1.1545,1.1545,1.1545,0,0,0,0,0,0,0,0,0,0,0,0,0,1.1651,1.1651,1.1631,1.1631,1.1631,1.1606,1.1606,1.1606,1.1574,1.1573,1.1573,1.1572,1.1545,1.1545,1.1545,0,0,0,0,0,0,0,0,0,0,0,0,0,1.1636,1.1651,1.1631,1.1612,1.161,1.1606,1.1606,1.1605,1.1574,1.1573,1.1572,1.1572,1.1545,1.1545,1.1545,1.1558,0,0,1.1544,1.1543,0,0,0,0,0,0,0,0,1.1637,1.1635,1.1615,1.1613,1.1611,1.1592,1.1603,1.1589,1.1574,1.1588,1.1572,1.1571,1.1561,1.156,1.1557,1.1556,1.1555,1.1544,1.1543,1.1543,1.1543,0,0,0,0,0,0,0,1.1638,1.1636,1.1621,1.1615,1.1612,1.1604,1.1601,1.16,1.1579,1.1586,1.1584,1.1582,1.156,1.1557,1.1556,1.1555,1.1544,1.1543,1.1543,1.1543,1.1565,1.1565,0,0,0,0,0,0,1.1642,1.1637,1.1622,1.1621,1.1622,1.1604,1.1601,1.1599,1.1579,1.1575,1.1582,1.158,1.1558,1.1556,1.1555,1.1569,1.1543,1.1543,1.1543,1.1564,1.1565,1.1566,0,0,0,0,0,0,1.1642,1.1641,1.1623,1.1628,1.1625,1.1605,1.1603,1.1599,1.1596,1.1576,1.1572,1.1583,1.1557,1.1555,1.1557,1.1568,1.1543,1.1542,1.1563,1.1564,1.1565,1.1598,0,0,0,0,0,0,1.1643,1.1641,1.1646,1.1629,1.1625,1.1627,1.1604,1.1599,1.1596,1.1593,1.1576,1.1572,1.1557,1.1558,1.1557,1.1567,1.1542,1.1562,1.1563,1.1565,1.1596,1.16,1.1604,0,0,0,0,0,1.1644,1.1656,1.1647,1.1645,1.1631,1.1627,1.1625,1.1608,1.1596,1.1601,1.1588,1.1573,1.1567,1.1559,1.1557,1.1567,1.1561,1.1563,1.1565,1.1594,1.1599,1.1604,0,0,0,0,0,0,1.1675,1.1653,1.1643,1.165,1.1641,1.1622,1.1628,1.1614,1.1608,1.1605,1.1583,1.158,1.1585,1.1576,1.1567,1.1579,1.1562,1.1563,1.1584,1.1589,1.1593,1.1595,1.1542,0,0,0,0,0,1.1683,1.1682,1.1663,1.1671,1.1667,1.1648,1.1646,1.1633,1.1623,1.1619,1.1606,1.1596,1.1592,1.159,1.1585,1.1594,1.159,1.16,1.1604,1.1607,1.1609,1.1614,1.1618,1.1571,1.1571,1.1571,0,0,1.1699,1.1687,1.1687,1.1677,1.1668,1.1668,1.1645,1.1645,1.1645,1.1619,1.162,1.1611,1.1598,1.1604,1.1606,1.1597,1.1621,1.161,1.1613,1.1613,1.1616,1.1621,1.1625,1.1573,1.1572,1.1572,0,0,1.1728,1.1718,1.1724,1.1716,1.1704,1.1691,1.1693,1.1676,1.1669,1.167,1.1651,1.165,1.1643,1.1635,1.163,1.1657,1.1642,1.1656,1.1676,1.1681,1.1685,1.1688,1.1698,1.1702,1.1657,1.1657,1.1657,0,1.1749,1.1748,1.1729,1.1731,1.1727,1.1703,1.1709,1.1702,1.1689,1.1686,1.1676,1.1668,1.1658,1.1662,1.1669,1.1665,1.1666,1.1658,1.1686,1.1689,1.1692,1.1701,1.1705,1.1659,1.1659,1.1659,1.1659,0,1.1775,1.1774,1.178,1.1769,1.1765,1.1769,1.1751,1.1749,1.1737,1.1725,1.1727,1.1714,1.1707,1.1706,1.1694,1.1709,1.1704,1.169,1.1673,1.1698,1.1707,1.171,1.1662,1.1661,1.1661,1.166,0,0,1.1823,1.1801,1.1804,1.1798,1.1783,1.1782,1.1785,1.1778,1.1777,1.1769,1.1771,1.1766,1.1753,1.1748,1.1734,1.1738,1.1761,1.1724,1.1724,1.1732,1.1777,1.1788,1.1792,1.1751,1.1751,1.1752,1.1778,0,1.185,1.1854,1.1837,1.1845,1.1845,1.1822,1.1824,1.1815,1.1804,1.1802,1.179,1.1787,1.177,1.1767,1.177,1.1757,1.1769,1.1755,1.1752,1.1752,1.1757,1.1796,1.1808,1.1833,1.1781,1.1782,1.1782,0,1.1882,1.1876,1.1884,1.1869,1.1868,1.187,1.1863,1.1861,1.185,1.1841,1.1836,1.182,1.1821,1.1804,1.1806,1.1796,1.1794,1.1788,1.1788,1.1788,1.1769,1.1798,1.1841,1.1845,1.1787,1.1786,1.1786,0,1.1917,1.1911,1.1915,1.1911,1.1893,1.1895,1.1888,1.1876,1.1873,1.1866,1.1864,1.1857,1.1854,1.1849,1.1832,1.1821,1.1835,1.1817,1.1829,1.1829,1.1834,1.1834,1.1878,1.1831,1.1831,1.1831,1.1831,0,1.195,1.1956,1.1931,1.1934,1.194,1.192,1.1927,1.1917,1.1907,1.1907,1.1887,1.1887,1.1865,1.1863,1.1849,1.1853,1.1851,1.1845,1.1841,1.1847,1.1848,1.1846,1.1844,1.1832,1.1832,1.1831,1.1831,0,1.1991,1.1974,1.1978,1.196,1.1956,1.1962,1.1947,1.1948,1.1936,1.1937,1.1936,1.1917,1.1913,1.1896,1.1888,1.1879,1.1888,1.188,1.1892,1.1889,1.1903,1.1902,1.1948,1.1953,1.1902,1.1903,1.1903,0,1.2013,1.2017,1.2,1.1999,1.1993,1.1991,1.1988,1.1969,1.1966,1.1954,1.1957,1.1953,1.1948,1.1943,1.1929,1.1923,1.1915,1.1932,1.1914,1.192,1.1916,1.1917,1.1917,1.1936,1.1936,1.1937,1.1937,0,1.2054,1.2046,1.2042,1.2036,1.2033,1.2027,1.202,1.202,1.1999,1.1997,1.1994,1.199,1.1982,1.1978,1.1969,1.1961,1.1946,1.1943,1.1945,1.1952,1.1959,1.1956,1.1903,1.1942,1.1942,1.1941,1.1941,1.1941,1.2087,1.209,1.2079,1.2075,1.2068,1.2062,1.2063,1.2051,1.2048,1.2041,1.2029,1.2027,1.2016,1.2003,1.1996,1.1995,1.1986,1.1989,1.199,1.1992,1.1995,1.1958,1.1993,1.1993,1.1992,1.1992,1.1992,0,1.2128,1.2119,1.2116,1.2107,1.2105,1.2091,1.2082,1.2081,1.208,1.2071,1.2067,1.2063,1.2058,1.2043,1.2037,1.2039,1.2032,1.2038,1.2038,1.2036,1.2003,1.2002,1.2044,1.2044,1.2044,1.2044,1.2044,1.2044,1.2149,1.2153,1.2143,1.2144,1.2135,1.2134,1.213,1.2124,1.2117,1.2114,1.211,1.2101,1.2089,1.2082,1.2077,1.2073,1.2072,1.2081,1.2074,1.2044,1.2039,1.2034,1.2033,1.2081,1.2081,1.2108,1.2108,1.2108]},{"header":{"parameterUnit":"m.s-1","parameterCategory":1,"la1":30.2991,"la2":30.254,"lo1":-89.0895,"lo2":-89.0444,"dy":0.0017,"dx":0.0017,"nx":28,"ny":28,"refTime":"2025-03-11T03:00:00:Z","depth":0,"parameterNumber":3,"parameterNumberName":"V-component_of_WINDS"},"data":[0,0,0,0,0,0,0,0,0,0,0,0,0,0,0,0,0,0,0,0,0,0,0,0,0,0,0,0,0,0,0,0,0,0,0,0,0,0,0,0,0,0,0,0,0,0,0,0,0,0,0,0,0,0,0,0,0,0,-1.2966,-1.2967,0,-1.3019,-1.302,-1.302,-1.3021,-1.3021,-1.302,-1.3019,-1.3075,-1.3077,-1.3079,0,0,0,0,0,0,0,0,0,0,0,0,0,-1.2866,-1.2868,-1.2966,-1.2967,-1.2967,-1.3019,-1.302,-1.3021,-1.3022,-1.3021,-1.302,-1.3019,-1.3074,-1.3077,-1.3079,0,0,0,0,0,0,0,0,0,0,0,0,0,-1.2913,-1.2868,-1.2966,-1.2974,-1.2975,-1.3019,-1.302,-1.3021,-1.3022,-1.3021,-1.302,-1.3019,-1.3074,-1.3077,-1.308,-1.3119,0,0,-1.3089,-1.3091,0,0,0,0,0,0,0,0,-1.2911,-1.2917,-1.2972,-1.2973,-1.2975,-1.3013,-1.3005,-1.3054,-1.3022,-1.3004,-1.3019,-1.3018,-1.3055,-1.306,-1.3072,-1.3122,-1.3124,-1.309,-1.3091,-1.3093,-1.3094,0,0,0,0,0,0,0,-1.2907,-1.2915,-1.2987,-1.2973,-1.2975,-1.2975,-1.2981,-1.3014,-1.3035,-1.3006,-1.3006,-1.3012,-1.3056,-1.3069,-1.3073,-1.3125,-1.3089,-1.3092,-1.3094,-1.3095,-1.321,-1.3211,0,0,0,0,0,0,-1.2902,-1.2912,-1.2985,-1.2989,-1.294,-1.2978,-1.2984,-1.3002,-1.3034,-1.3038,-1.3013,-1.3012,-1.3064,-1.307,-1.3075,-1.3123,-1.3093,-1.3096,-1.3098,-1.3209,-1.321,-1.3211,0,0,0,0,0,0,-1.29,-1.2909,-1.2983,-1.295,-1.296,-1.2981,-1.3,-1.3003,-1.3016,-1.304,-1.3043,-1.3022,-1.3063,-1.3071,-1.3108,-1.3125,-1.3097,-1.31,-1.3207,-1.3209,-1.3211,-1.322,0,0,0,0,0,0,-1.2897,-1.2908,-1.2923,-1.2951,-1.2962,-1.3015,-1.3001,-1.3005,-1.3022,-1.3021,-1.305,-1.3054,-1.3063,-1.3103,-1.3111,-1.3129,-1.3103,-1.3206,-1.3208,-1.321,-1.3218,-1.3222,-1.3225,0,0,0,0,0,-1.2894,-1.2924,-1.2924,-1.2933,-1.2981,-1.3016,-1.3022,-1.3032,-1.3023,-1.3038,-1.3053,-1.3053,-1.3122,-1.3107,-1.3116,-1.3135,-1.3205,-1.3207,-1.321,-1.3217,-1.3221,-1.3225,0,0,0,0,0,0,-1.2898,-1.2928,-1.2928,-1.2968,-1.2989,-1.3016,-1.3036,-1.3037,-1.3062,-1.306,-1.3072,-1.3078,-1.3115,-1.3129,-1.3112,-1.3175,-1.3162,-1.3167,-1.3165,-1.3169,-1.3172,-1.3168,-1.3105,0,0,0,0,0,-1.2904,-1.293,-1.2954,-1.2987,-1.2998,-1.3015,-1.3031,-1.3036,-1.3059,-1.3069,-1.3086,-1.3109,-1.3136,-1.3153,-1.3179,-1.322,-1.3227,-1.3238,-1.3241,-1.3244,-1.3248,-1.3271,-1.3276,-1.322,-1.322,-1.322,0,0,-1.2916,-1.2935,-1.2951,-1.2988,-1.3006,-1.3032,-1.3022,-1.3051,-1.3071,-1.3073,-1.3109,-1.3123,-1.3149,-1.3188,-1.3207,-1.3201,-1.3265,-1.3247,-1.3249,-1.3252,-1.3274,-1.3279,-1.3284,-1.3221,-1.3221,-1.3221,0,0,-1.2951,-1.2968,-1.2997,-1.3015,-1.3041,-1.3052,-1.3059,-1.3086,-1.3095,-1.3131,-1.3133,-1.3157,-1.3203,-1.3222,-1.3237,-1.3279,-1.328,-1.3287,-1.3305,-1.3327,-1.3331,-1.3335,-1.3351,-1.3356,-1.3291,-1.3291,-1.3291,0,-1.2963,-1.3003,-1.3012,-1.3041,-1.3058,-1.306,-1.309,-1.3107,-1.314,-1.3152,-1.3145,-1.3202,-1.322,-1.3264,-1.3274,-1.3286,-1.3295,-1.3284,-1.333,-1.3334,-1.3338,-1.3352,-1.3358,-1.3292,-1.3292,-1.3292,-1.3292,0,-1.3015,-1.3043,-1.3064,-1.3096,-1.3114,-1.3144,-1.3158,-1.3176,-1.318,-1.3192,-1.323,-1.3251,-1.3281,-1.3292,-1.3297,-1.3336,-1.3332,-1.3327,-1.3315,-1.3344,-1.3358,-1.3363,-1.3293,-1.3293,-1.3292,-1.3292,0,0,-1.3055,-1.3092,-1.3099,-1.3114,-1.3143,-1.3165,-1.3194,-1.3223,-1.3238,-1.3261,-1.3286,-1.3325,-1.3321,-1.3339,-1.3345,-1.3365,-1.3397,-1.3358,-1.3359,-1.3364,-1.3442,-1.3445,-1.3451,-1.3397,-1.3398,-1.3399,-1.344,0,-1.3094,-1.3145,-1.3155,-1.32,-1.3226,-1.3229,-1.3254,-1.3275,-1.3287,-1.3311,-1.3324,-1.3351,-1.3344,-1.3354,-1.3374,-1.3389,-1.3412,-1.3386,-1.3421,-1.3422,-1.3414,-1.3459,-1.3462,-1.35,-1.3445,-1.3446,-1.3447,0,-1.3146,-1.3169,-1.3217,-1.3242,-1.3254,-1.3276,-1.3304,-1.3327,-1.335,-1.3357,-1.3377,-1.3381,-1.3412,-1.3398,-1.3441,-1.3422,-1.3437,-1.3447,-1.3449,-1.3452,-1.3436,-1.3464,-1.3512,-1.3518,-1.3455,-1.3455,-1.3454,0,-1.317,-1.3214,-1.3248,-1.326,-1.3291,-1.3307,-1.332,-1.3343,-1.336,-1.3384,-1.3395,-1.3423,-1.3438,-1.3459,-1.3471,-1.346,-1.3513,-1.35,-1.3521,-1.352,-1.3532,-1.3531,-1.3583,-1.3541,-1.3541,-1.3541,-1.3541,0,-1.3212,-1.3241,-1.3259,-1.328,-1.3313,-1.3324,-1.3356,-1.3369,-1.3389,-1.3413,-1.3417,-1.344,-1.3454,-1.3479,-1.3488,-1.3522,-1.3529,-1.3536,-1.3538,-1.3536,-1.3535,-1.3546,-1.3544,-1.3542,-1.3542,-1.3542,-1.3542,0,-1.3245,-1.3258,-1.3295,-1.3321,-1.3328,-1.3351,-1.3373,-1.3394,-1.3406,-1.3436,-1.3444,-1.3462,-1.3491,-1.3505,-1.3542,-1.3548,-1.3587,-1.3587,-1.3578,-1.3579,-1.3599,-1.3597,-1.366,-1.3669,-1.3621,-1.3621,-1.3622,0,-1.327,-1.3293,-1.3321,-1.3337,-1.3351,-1.3376,-1.3394,-1.3405,-1.3423,-1.3451,-1.3469,-1.3498,-1.3522,-1.3568,-1.3585,-1.3613,-1.3614,-1.3635,-1.3619,-1.3615,-1.3615,-1.3613,-1.3616,-1.3637,-1.3638,-1.3638,-1.3639,0,-1.3315,-1.3321,-1.3345,-1.3372,-1.3392,-1.3414,-1.3436,-1.3449,-1.3464,-1.3483,-1.3513,-1.3531,-1.3568,-1.3597,-1.3626,-1.364,-1.3642,-1.3643,-1.365,-1.3647,-1.3642,-1.3645,-1.3586,-1.3642,-1.3642,-1.3641,-1.3641,-1.3641,-1.3346,-1.3365,-1.3388,-1.3415,-1.3432,-1.3452,-1.3473,-1.3487,-1.3512,-1.3542,-1.3548,-1.3579,-1.3602,-1.3641,-1.3656,-1.3681,-1.3677,-1.3686,-1.3688,-1.369,-1.3691,-1.3637,-1.3687,-1.3687,-1.3686,-1.3686,-1.3686,0,-1.3391,-1.3405,-1.343,-1.3459,-1.3481,-1.348,-1.3504,-1.3522,-1.3549,-1.357,-1.3594,-1.3628,-1.3656,-1.3675,-1.3703,-1.372,-1.3721,-1.3727,-1.3726,-1.3729,-1.3694,-1.3685,-1.3725,-1.3725,-1.3725,-1.3725,-1.3725,-1.3725,-1.3416,-1.345,-1.3458,-1.3501,-1.3515,-1.3546,-1.3559,-1.3578,-1.3594,-1.3632,-1.3655,-1.3667,-1.3688,-1.3718,-1.3744,-1.3749,-1.3759,-1.3765,-1.377,-1.3736,-1.3732,-1.3728,-1.372,-1.3767,-1.3767,-1.3803,-1.3804,-1.3804]}]]